�������l�o���
Date,Time,MP-1(��Sv/h),MP-2(��Sv/h),MP-3(��Sv/h),MP-4(��Sv/h),MP-5(��Sv/h),MP-6(��Sv/h),MP-7(��Sv/h),MP-8(��Sv/h),����,����(m/s),���J
2019/10/05,00:00,0.757,1.069,0.740,1.318,0.964,0.429,0.741,0.700,���k��,6.8,��
2019/10/05,00:10,0.756,1.069,0.742,1.317,0.967,0.429,0.742,0.700,�k��,11.6,��
2019/10/05,00:20,0.756,1.069,0.741,1.318,0.964,0.429,0.743,0.701,�k��,10.8,��
2019/10/05,00:30,0.756,1.070,0.741,1.316,0.965,0.427,0.743,0.702,�k��,10.3,��
2019/10/05,00:40,0.757,1.067,0.741,1.319,0.966,0.426,0.743,0.701,�k��,9.1,��
2019/10/05,00:50,0.755,1.070,0.743,1.321,0.967,0.425,0.741,0.701,�k��,9.9,��
2019/10/05,01:00,0.757,1.068,0.741,1.319,0.964,0.427,0.741,0.701,�k��,9.7,��
2019/10/05,01:10,0.758,1.069,0.741,1.318,0.964,0.427,0.742,0.700,���k��,10.2,��
2019/10/05,01:20,0.756,1.068,0.742,1.320,0.967,0.427,0.744,0.700,���k��,9.7,��
2019/10/05,01:30,0.756,1.070,0.742,1.317,0.966,0.427,0.742,0.699,�k��,9.0,��
2019/10/05,01:40,0.755,1.072,0.740,1.319,0.965,0.425,0.743,0.699,�k��,7.8,��
2019/10/05,01:50,0.754,1.073,0.742,1.317,0.966,0.427,0.742,0.701,�k��,8.5,��
2019/10/05,02:00,0.756,1.072,0.742,1.319,0.967,0.426,0.743,0.699,���k��,7.6,��
2019/10/05,02:10,0.755,1.067,0.744,1.320,0.966,0.426,0.740,0.700,�k��,6.7,��
2019/10/05,02:20,0.755,1.070,0.742,1.319,0.966,0.425,0.741,0.700,��,4.0,��
2019/10/05,02:30,0.754,1.068,0.742,1.317,0.966,0.427,0.742,0.701,���k��,6.9,��
2019/10/05,02:40,0.754,1.070,0.743,1.320,0.966,0.426,0.742,0.701,���k��,6.9,��
2019/10/05,02:50,0.758,1.069,0.741,1.320,0.968,0.427,0.742,0.701,���쐼,4.5,��
2019/10/05,03:00,0.756,1.069,0.741,1.319,0.966,0.428,0.742,0.701,��,5.2,��
2019/10/05,03:10,0.756,1.071,0.743,1.318,0.962,0.425,0.744,0.700,��,5.3,��
2019/10/05,03:20,0.755,1.070,0.743,1.317,0.967,0.427,0.742,0.701,��,3.5,��
2019/10/05,03:30,0.757,1.071,0.744,1.316,0.966,0.426,0.741,0.699,��,3.7,��
2019/10/05,03:40,0.756,1.070,0.742,1.318,0.965,0.427,0.744,0.700,���k��,5.5,��
2019/10/05,03:50,0.756,1.070,0.744,1.319,0.965,0.427,0.744,0.700,��,5.5,��
2019/10/05,04:00,0.754,1.070,0.742,1.319,0.965,0.426,0.744,0.700,��,5.1,��
2019/10/05,04:10,0.757,1.071,0.743,1.320,0.962,0.425,0.742,0.700,���k��,7.3,��
2019/10/05,04:20,0.756,1.071,0.742,1.318,0.964,0.427,0.744,0.699,���k��,12.0,��
2019/10/05,04:30,0.756,1.070,0.742,1.320,0.967,0.427,0.742,0.699,��,9.4,��
2019/10/05,04:40,0.757,1.069,0.742,1.320,0.965,0.428,0.743,0.701,��,10.2,��
2019/10/05,04:50,0.755,1.070,0.741,1.319,0.967,0.426,0.743,0.700,���k��,10.9,��
2019/10/05,05:00,0.756,1.070,0.743,1.319,0.965,0.427,0.743,0.701,���k��,9.5,��
2019/10/05,05:10,0.756,1.071,0.743,1.320,0.965,0.426,0.742,0.701,���k��,5.3,��
2019/10/05,05:20,0.757,1.069,0.742,1.320,0.968,0.425,0.741,0.700,���k��,7.2,��
2019/10/05,05:30,0.757,1.072,0.743,1.320,0.967,0.428,0.742,0.701,���k��,8.8,��
2019/10/05,05:40,0.754,1.069,0.743,1.319,0.966,0.426,0.742,0.700,���k��,7.3,��
2019/10/05,05:50,0.756,1.073,0.741,1.320,0.966,0.426,0.742,0.700,�k��,10.5,��
2019/10/05,06:00,0.756,1.070,0.743,1.319,0.965,0.427,0.743,0.702,�k��,12.1,��
2019/10/05,06:10,0.756,1.069,0.743,1.319,0.965,0.425,0.742,0.701,�k��,10.0,��
2019/10/05,06:20,0.756,1.071,0.745,1.320,0.965,0.426,0.742,0.702,�k��,8.6,��
2019/10/05,06:30,0.756,1.070,0.743,1.321,0.965,0.424,0.742,0.698,�k��,7.3,��
2019/10/05,06:40,0.755,1.071,0.740,1.319,0.968,0.423,0.741,0.700,�k��,7.5,��
2019/10/05,06:50,0.756,1.070,0.743,1.320,0.969,0.425,0.742,0.700,�k��,10.5,��
2019/10/05,07:00,0.755,1.068,0.742,1.320,0.966,0.424,0.741,0.700,�k��,10.0,��
2019/10/05,07:10,0.756,1.068,0.742,1.322,0.964,0.424,0.742,0.699,�k��,10.9,��
2019/10/05,07:20,0.755,1.069,0.741,1.321,0.962,0.424,0.742,0.701,�k��,13.3,��
2019/10/05,07:30,0.755,1.067,0.740,1.321,0.963,0.423,0.740,0.700,�k��,10.2,��
2019/10/05,07:40,0.755,1.069,0.740,1.323,0.965,0.424,0.743,0.700,�k��,10.2,��
2019/10/05,07:50,0.755,1.072,0.739,1.322,0.963,0.424,0.741,0.700,���k��,10.9,��
2019/10/05,08:00,0.753,1.069,0.739,1.322,0.964,0.425,0.742,0.700,���k��,10.7,��
2019/10/05,08:10,0.753,1.069,0.737,1.322,0.968,0.422,0.742,0.700,�k��,9.1,��
2019/10/05,08:20,0.753,1.068,0.737,1.322,0.967,0.424,0.742,0.699,�k��,6.8,��
2019/10/05,08:30,0.754,1.066,0.739,1.321,0.966,0.425,0.743,0.700,�k��,8.5,��
2019/10/05,08:40,0.756,1.066,0.738,1.323,0.966,0.424,0.742,0.698,�k��,7.6,��
2019/10/05,08:50,0.753,1.068,0.740,1.324,0.966,0.423,0.742,0.700,���k��,5.0,��
2019/10/05,09:00,0.757,1.067,0.741,1.322,0.966,0.424,0.743,0.697,���k��,5.5,��
2019/10/05,09:10,0.756,1.067,0.741,1.322,0.965,0.423,0.743,0.697,���k��,6.3,��
2019/10/05,09:20,0.758,1.067,0.739,1.322,0.965,0.423,0.744,0.700,��,7.2,��
2019/10/05,09:30,0.755,1.069,0.741,1.322,0.969,0.423,0.743,0.698,���k��,5.6,��
2019/10/05,09:40,0.757,1.064,0.739,1.326,0.966,0.423,0.744,0.699,���k��,5.7,��
2019/10/05,09:50,0.758,1.069,0.741,1.321,0.968,0.424,0.743,0.697,�k��,7.5,��
2019/10/05,10:00,0.756,1.067,0.740,1.328,0.968,0.424,0.744,0.698,���k��,7.1,��
2019/10/05,10:10,0.757,1.069,0.740,1.325,0.969,0.424,0.744,0.700,��,5.0,��
2019/10/05,10:20,0.758,1.066,0.742,1.325,0.971,0.424,0.743,0.700,���k��,6.4,��
2019/10/05,10:30,0.757,1.071,0.741,1.327,0.969,0.425,0.744,0.698,���k��,5.7,��
2019/10/05,10:40,0.758,1.070,0.740,1.326,0.969,0.424,0.746,0.700,��,5.5,��
2019/10/05,10:50,0.758,1.071,0.741,1.325,0.971,0.426,0.744,0.698,���k��,4.5,��
2019/10/05,11:00,0.758,1.068,0.742,1.326,0.971,0.424,0.743,0.699,���k��,4.1,��
2019/10/05,11:10,0.760,1.072,0.739,1.327,0.973,0.424,0.745,0.698,��,4.6,��
2019/10/05,11:20,0.758,1.072,0.743,1.324,0.972,0.424,0.743,0.699,��,3.1,��
2019/10/05,11:30,0.759,1.071,0.743,1.324,0.970,0.425,0.746,0.698,���쐼,2.3,��
2019/10/05,11:40,0.760,1.073,0.743,1.327,0.973,0.426,0.744,0.700,���쐼,4.5,��
2019/10/05,11:50,0.759,1.073,0.742,1.326,0.972,0.427,0.745,0.701,��,5.2,��
2019/10/05,12:00,0.761,1.076,0.746,1.327,0.970,0.427,0.744,0.699,��,5.2,��
2019/10/05,12:10,0.759,1.079,0.745,1.325,0.971,0.428,0.745,0.700,���쐼,4.2,��
2019/10/05,12:20,0.761,1.078,0.743,1.326,0.971,0.426,0.744,0.698,���쐼,4.4,��
2019/10/05,12:30,0.761,1.078,0.743,1.328,0.974,0.427,0.746,0.699,��,4.3,��
2019/10/05,12:40,0.762,1.076,0.744,1.329,0.973,0.429,0.745,0.700,��,5.0,��
2019/10/05,12:50,0.760,1.074,0.746,1.330,0.973,0.429,0.746,0.699,��,4.1,��
2019/10/05,13:00,0.761,1.079,0.746,1.327,0.975,0.429,0.744,0.701,��,4.5,��
2019/10/05,13:10,0.760,1.072,0.744,1.327,0.974,0.430,0.744,0.700,��,5.0,��
2019/10/05,13:20,0.761,1.071,0.745,1.327,0.973,0.429,0.745,0.700,���k��,4.6,��
2019/10/05,13:30,0.761,1.073,0.744,1.328,0.976,0.429,0.743,0.700,��,4.4,��
2019/10/05,13:40,0.760,1.074,0.743,1.328,0.975,0.428,0.744,0.699,��쐼,1.7,��
2019/10/05,13:50,0.758,1.072,0.743,1.327,0.975,0.426,0.744,0.700,��쓌,6.3,��
2019/10/05,14:00,0.760,1.077,0.744,1.328,0.976,0.428,0.745,0.700,��쓌,6.3,��
2019/10/05,14:10,0.760,1.074,0.745,1.328,0.976,0.428,0.745,0.700,��쓌,6.2,��
2019/10/05,14:20,0.759,1.078,0.745,1.328,0.977,0.427,0.744,0.699,��쓌,5.3,��
2019/10/05,14:30,0.759,1.076,0.745,1.327,0.977,0.427,0.743,0.699,��쓌,4.7,��
2019/10/05,14:40,0.760,1.077,0.743,1.329,0.977,0.427,0.744,0.700,��쓌,4.8,��
2019/10/05,14:50,0.761,1.078,0.744,1.329,0.976,0.427,0.742,0.701,��쓌,5.7,��
2019/10/05,15:00,0.760,1.078,0.743,1.328,0.978,0.426,0.744,0.700,��,5.1,��
2019/10/05,15:10,0.759,1.079,0.743,1.328,0.974,0.427,0.743,0.700,��쓌,6.1,��
2019/10/05,15:20,0.761,1.075,0.745,1.329,0.976,0.428,0.742,0.700,��,5.6,��
2019/10/05,15:30,0.760,1.079,0.745,1.328,0.976,0.426,0.744,0.698,��쓌,5.1,��
2019/10/05,15:40,0.759,1.077,0.745,1.329,0.977,0.427,0.743,0.699,��쓌,4.9,��
2019/10/05,15:50,0.762,1.074,0.744,1.330,0.976,0.426,0.742,0.701,��쓌,4.9,��
2019/10/05,16:00,0.759,1.080,0.743,1.330,0.974,0.425,0.743,0.699,��쓌,5.8,��
2019/10/05,16:10,0.760,1.081,0.742,1.330,0.976,0.427,0.743,0.699,��쓌,5.8,��
2019/10/05,16:20,0.760,1.081,0.745,1.329,0.976,0.428,0.742,0.699,��,6.1,��
2019/10/05,16:30,0.759,1.080,0.744,1.329,0.975,0.425,0.742,0.699,��,5.1,��
2019/10/05,16:40,0.761,1.081,0.744,1.330,0.975,0.427,0.743,0.698,��,5.1,��
2019/10/05,16:50,0.758,1.082,0.744,1.329,0.973,0.426,0.743,0.702,��,5.1,��
2019/10/05,17:00,0.758,1.081,0.743,1.329,0.976,0.428,0.743,0.702,��쐼,4.2,��
2019/10/05,17:10,0.758,1.082,0.745,1.329,0.976,0.428,0.744,0.701,��쐼,5.1,��
2019/10/05,17:20,0.758,1.084,0.745,1.329,0.977,0.429,0.744,0.701,��,5.7,��
2019/10/05,17:30,0.759,1.085,0.747,1.329,0.976,0.429,0.745,0.700,��,5.9,��
2019/10/05,17:40,0.756,1.084,0.746,1.330,0.976,0.428,0.745,0.702,��쐼,5.1,��
2019/10/05,17:50,0.758,1.083,0.747,1.329,0.977,0.429,0.743,0.701,��쐼,3.7,��
2019/10/05,18:00,0.756,1.084,0.746,1.331,0.981,0.429,0.746,0.700,�쐼,2.3,��
2019/10/05,18:10,0.758,1.083,0.747,1.329,0.977,0.427,0.744,0.702,��쐼,2.2,��
2019/10/05,18:20,0.760,1.084,0.748,1.330,0.979,0.429,0.743,0.701,��쐼,2.8,��
2019/10/05,18:30,0.762,1.085,0.747,1.329,0.978,0.427,0.745,0.702,��쐼,1.9,��
2019/10/05,18:40,0.760,1.084,0.746,1.332,0.977,0.429,0.743,0.700,��쐼,1.5,��
2019/10/05,18:50,0.759,1.086,0.747,1.329,0.977,0.428,0.744,0.700,��,2.3,��
2019/10/05,19:00,0.760,1.085,0.745,1.328,0.978,0.428,0.742,0.701,��쐼,2.6,��
2019/10/05,19:10,0.760,1.082,0.749,1.328,0.977,0.428,0.742,0.702,��쐼,2.8,��
2019/10/05,19:20,0.761,1.084,0.746,1.331,0.979,0.428,0.743,0.702,��,2.6,��
2019/10/05,19:30,0.761,1.085,0.748,1.330,0.978,0.428,0.743,0.701,�쐼,1.2,��
2019/10/05,19:40,0.760,1.084,0.747,1.329,0.976,0.427,0.742,0.701,���쐼,1.2,��
2019/10/05,19:50,0.761,1.083,0.748,1.329,0.976,0.426,0.744,0.701,���k��,1.4,��
2019/10/05,20:00,0.761,1.084,0.747,1.329,0.980,0.428,0.742,0.702,�k��,1.9,��
2019/10/05,20:10,0.760,1.082,0.748,1.331,0.979,0.428,0.744,0.701,���k��,1.1,��
2019/10/05,20:20,0.759,1.085,0.747,1.328,0.978,0.427,0.746,0.701,�쐼,1.2,��
2019/10/05,20:30,0.760,1.083,0.748,1.328,0.977,0.427,0.744,0.702,��,1.2,��
2019/10/05,20:40,0.761,1.084,0.747,1.328,0.978,0.428,0.743,0.701,��,1.7,��
2019/10/05,20:50,0.760,1.083,0.747,1.330,0.979,0.427,0.744,0.702,��,3.7,��
2019/10/05,21:00,0.760,1.083,0.747,1.328,0.977,0.426,0.744,0.701,��쐼,3.9,��
2019/10/05,21:10,0.760,1.081,0.748,1.328,0.978,0.428,0.743,0.702,��,3.9,��
2019/10/05,21:20,0.758,1.084,0.749,1.328,0.978,0.428,0.743,0.701,��쐼,1.9,��
2019/10/05,21:30,0.759,1.082,0.746,1.331,0.978,0.427,0.743,0.701,��쐼,2.5,��
2019/10/05,21:40,0.761,1.081,0.746,1.328,0.977,0.429,0.743,0.702,�쐼,2.6,��
2019/10/05,21:50,0.760,1.082,0.747,1.331,0.979,0.427,0.744,0.701,��쐼,4.2,�L
2019/10/05,22:00,0.761,1.083,0.747,1.327,0.976,0.427,0.744,0.700,�쐼,4.4,�L
2019/10/05,22:10,0.760,1.081,0.747,1.329,0.977,0.428,0.743,0.702,��쐼,3.7,�L
2019/10/05,22:20,0.760,1.082,0.747,1.329,0.977,0.428,0.742,0.700,��쐼,3.3,�L
2019/10/05,22:30,0.759,1.079,0.746,1.329,0.978,0.426,0.743,0.701,��,2.2,�L
2019/10/05,22:40,0.759,1.083,0.747,1.331,0.977,0.428,0.744,0.701,��쐼,3.5,�L
2019/10/05,22:50,0.758,1.081,0.746,1.331,0.977,0.426,0.743,0.700,��,3.5,�L
2019/10/05,23:00,0.759,1.081,0.746,1.330,0.977,0.427,0.743,0.700,��,2.2,��
2019/10/05,23:10,0.759,1.080,0.746,1.330,0.978,0.428,0.744,0.702,��쐼,1.4,�L
2019/10/05,23:20,0.759,1.081,0.748,1.327,0.977,0.428,0.743,0.701,��쐼,1.7,��
2019/10/05,23:30,0.759,1.081,0.747,1.330,0.978,0.428,0.744,0.701,���k��,0.6,��
2019/10/05,23:40,0.759,1.083,0.747,1.328,0.976,0.426,0.746,0.701,��,1.4,��
2019/10/05,23:50,0.759,1.079,0.748,1.328,0.978,0.426,0.745,0.702,��,1.5,��
